Погода в Тулуне

Погода в Тулуне : погода сейчас, прогноз погоды и архив. Всё, что Вы хотите узнать о погоде в Тулуне!

Хотите узнать прогноз погоды в Тулуне? Тогда Вам сюда: Погода в Тулуне

Поиск расширенной информации на нашем сайте:

Другие новости

Новости СМИ2

Главная страница сайта

Новости сайта

03.07.2017

Напоминаем, что на нашем специализированном сайте Метеоцентр.Азия вы можете получить высокодетализированные автоматические прогнозы погоды по пунктам России, СНГ и мира в авиационном формате (включающие направление и скорость ветра, видимость, явления погоды, количество и форму облачности, нижнюю и верхнюю границу облачности).


Погода в Тулуне - сегодня

Время (UTC), дата Ветер
(°,м/с) 
Видим.   Явления Облачность Т
(°С)
Тd
(°С)
f(%) Тe
(°С)
Pmin
(гПа)
dP
(гПа)
Po
(мм)
O2
(г/м3)
Тmin Tmax R s Состояние
почвы
03 22.05.18 190 (Ю) 20000 м  слаб. ливневой дождь  10/6 600 м кучево-дожд., средняя 
[Cb calv|Ac As]
+4.6 +2.8 88 +4  1006.5  -2.9  708  280           
06 22.05.18 200 (Ю) 20000 м  слаб. ливневой дождь  10/8 600 м кучево-дожд., средняя 
[Cb calv|Ac As]
+6 +5.2 95 +6  1003.3  -2.9  706  278           
09 22.05.18 240 (ЮЗ) 20000 м  слаб. ливневой дождь  10/8 600 м кучево-дожд., средняя 
[Cb calv|Ac As]
+8.3 +7.4 94 +8  1001.1  -1.5  705  274           
12 22.05.18 260 (З) 20000 м  {ливн. осадки}  9/8 600 м кучево-дожд., средняя 
[Cb calv|Ac trans]
+9.8 +8.6 92 +11  1000.5  -0.3  705  273    +9.8     
15 22.05.18 230 (ЮЗ) н/о    9/9 600 м кучево-дожд. 
[Cb calv]
+9.1 +8.1 93 +10  999.9  -0.7  704  273           
18 22.05.18 250 (З) н/о  {ливн. осадки}  9/8 600 м кучево-дожд., средняя 
[Cb calv|Ac trans]
+9.2 +7.5 89 +10  997.8  -1.9  703  273           
21 22.05.18 тихо ()   20000 м    9/9 600 м кучево-дожд. 
[Cb calv]
+9 +7.1 88 +9  995.3  -2.4  701  272           
00 23.05.18 220 (ЮЗ) 20000 м  {ливн. осадки}  9/4 600 м кучево-дожд., средняя 
[Cb calv|Ac trans]
+8.5 +7.8 95 +10  995.4  701  273  +7.7    0.6    влажная 
06 23.05.18 320 (СЗ) 20000 м  {ливн. осадки}  9/6 600 м кучево-дожд., средняя 
[Cb calv|Ac trans]
+11.1 +6.7 74 +11  995.5  -0.4  702  270           
09 23.05.18 340 (С) 20000 м    9/6 600 м кучево-дожд., средняя 
[Cb calv|Ac trans]
+11.6 +6.2 69 +12  995.9  0.4  702  270           
12 23.05.18 330 (СЗ) 20000 м    9/5 600 м средняя, верхняя 
[Sc|Ac trans|Ci sp]
+10.5 +5.8 73 +11  996.5  0.4  702  271    +11.7     
15 23.05.18 090 (В) н/о  в посл. час ливневой дождь  9/6 600 м кучево-дожд., средняя 
[Cb calv|Ac trans]
+7.4 +6 91 +8  997.1  702  274           
18 23.05.18 020 (С) н/о  {ливн. осадки}  9/4 600 м кучево-дожд., средняя, верхняя 
[Cb calv|Ac trans|Ci sp]
+6.8 +5.5 91 +7  996.4  -0.9  702  275           
21 23.05.18 280 (З) 20000 м    10/10 600 м кучево-дожд. 
[Cb calv]
+7 +5.8 92 +7  997.7  1.3  703  275           
00 24.05.18 340 (С) 20000 м  {ливн. осадки}  9/9 600 м кучево-дожд. 
[Cb calv]
+7.4 +6.6 95 +8  999.6  1.9  704  275  +4.8      мокрая 
03 24.05.18 290 (З) 20000 м    9/5 600 м кучево-дожд., средняя 
[Cb calv|Ac trans]
+9.1 +5.2 77 +9  1001.6  2.2  706  274           
06 24.05.18 340 (С) 20000 м    10/6 600 м кучево-дожд., средняя 
[Cb calv|Ac As]
+9.3 +4.4 71 +9  1004.7  2.9  708  275           
09 24.05.18 330 (СЗ) 20000 м  слаб. ливневой дождь  10/8 600 м кучево-дожд., средняя 
[Cb calv|Ac As]
+9.8 +3.3 64 +11  1007  2.2  710  275           
12 24.05.18 280 (З) 20000 м  слаб. ливневой дождь  10/8 600 м кучево-дожд., средняя 
[Cb calv|Ac As]
+7.5 +5.8 89 +8  1010.2  2.5  711  278    +10.3     
15 24.05.18 270 (З) н/о  слаб. ливневой дождь  10/9 600 м кучево-дожд., средняя 
[Cb calv|Ac As]
+6.5 +5 90 +7  1012.5  713  280           
18 24.05.18 310 (СЗ) н/о  слаб. ливневой дождь  10/10 600 м кучево-дожд. 
[Cb calv]
+5.2 +4.1 93 +4  1013.5  0.6  713  281           
21 24.05.18 320 (СЗ) 4000 м  слаб. ливневой дождь  10/10 600 м кучево-дожд. 
[Cb calv]
+4.7 +4.2 97 +4  1014.8  1.1  714  282           
00 25.05.18 350 (С) 20000 м  слаб. ливневой снег  10/8 600 м кучево-дожд., средняя 
[Cb calv|Ac As]
+4.8 +4 95 +4  1016.2  1.4  715  282  +4.6      мокрая 
03 25.05.18 340 (С) 20000 м  слаб. ливневой дождь  9/8 600 м кучево-дожд., средняя 
[Cb calv|Ac trans]
+5.6 +4.3 91 +5  1016.5  0.5  716  282           
06 25.05.18 330 (СЗ) 20000 м  слаб. ливневой дождь  9/8 600 м кучево-дожд., средняя 
[Cb calv|Ac trans]
+7.3 +5.2 86 +7  1015.5  -0.6  715  280           
Время (UTC), дата Ветер
(°,м/с) 
Видим.   Явления Облачность Т
(°С)
Тd
(°С)
f(%) Тe
(°С)
Pmin
(гПа)
dP
(гПа)
Po
(мм)
O2
(г/м3)
Тmin Tmax R s Состояние
почвы

Для получения пояснительной информации подведите курсор к названию столбца.

ПОГОДА в Тулуне - архив

Всё, что Вы хотите узнать о погоде в Тулуне - удобно и подробно!

Выберите нужную дату (начиная с 1 января 2015* года) и нажмите кнопку "Найти".
Будут отображены архивные сводки погоды по пункту Тулун, начиная с указанной даты.


Отображать данные в формате CSV (для использования в таблицах Excel)


Внимание! Наш архив погоды предназначен исключительно для личного некоммерческого использования в познавательных целях. Если Вам необходимы официальные справки о состоянии погоды (для производственных, юридических, коммерческих и т.п. целей), обращайтесь в органы Росгидромета.

*Примечание: данная дата относится к архиву по метеостанциям СССР (Россия, СНГ, Балтия).
Архив по метеостанциям Зарубежной Европы и Азии (кроме Китая) хранится 10 дней, по другим регионам земного шара (Китай, Африка, Америка, Австралия, Океания) - 1 день.

Тулун - район местоположения метеостанции


Название, широта, долгота, высота метеостанции:
Тулун 54.6°ш. 100.6°д. 522 м над ур. моря [Российская Федерация]

Дополнительная информация

В oтличие oт бoльшинства пoгoдных сайтoв мы публикуем пoдрoбную метеoинфoрмацию в детальнoм прoфессиoнальнoм фoрмате.

Характеристики температуры и влажнoсти вoздуха измеряются на высoте 2 м в тени вдали oт зданий и деревьев.
Скoрoсть ветра измеряется на высoте 10 м (на урoвне рoста челoвека скoрoсть ветра ниже в 1.5-2 раза). Если метеoстанция нахoдится в гoрoде или в лесу, тo скoрoсть ветра занижена на 2-4 м/с пo сравнению с oткрытым местoм. Скoрoсть ветра над акватoриями крупных рек и oзёр, а также на вершинах хoлмoв на 2-5 м/с выше, чем в oбычных услoвиях.
Атмoсфернoе давление в разных тoчках местнoсти мoжет значительнo oтличаться oт давления на метеoстанции, в зависимoсти oт услoвий рельефа (при пoдъёме на 10 м давление пoнижается примернo на 1 мм рт.ст.).